SCP
0 0 0 0 0 0 0 0 0 0 0 0 0 0 0 0 0 0 0 0 0 0
0 0 0 0 0 0 0 0 0 0 0 0 0 0 0 0 0 0 0 0 0 0
0 0 0 0 0 0 0 0 0 0 0 0 0 0 0 0 0 0 0 0 0 0
0 0 0 0 0 0 0 0 0 0 0 0 0 0 0 0 0 0 0 0 0 0
0 0 0 0 0 0 0 0 0 0 0 0 0 0 0 0 0 0 0 0 0 0
0 0 0 0 0 0 0 0 0 0 0 0 0 0 0 0 0 0 0 0 0 0
0 0 0 0 0 0 0 0 0 0 0 0 0 0 0 0 0 0 0 0 0 0
0 0 0 0 0 0 0 0 0 0 0 0 0 0 0 0 0 0 0 0 0 0
0 0 0 0 0 0 0 0 0 0 0 0 0 0 0 0 0 0 0 0 0 0
0 0 0 0 0 0 0 0 0 0 0 0 0 0 0 0 0 0 0 0 0 0
0 0 0 0 0 0 0 0 0 0 0 0 0 0 0 0 0 0 0 0 0 0
0 0 0 0 0 0 0 0 0 0 0 0 0 0 0 0 0 0 0 0 0 0
0 0 0 0 0 0 0 0 0 0 0 0 0 0 0 0 0 0 0 0 0 0
0 0 0 0 0 0 0 0 0 0 0 0 0 0 0 0 0 0 0 0 0 0
Wind_Speed_500mb
22 15 19 33 48 71 75 71 67 80 83 86 94 105 111 110 105 109 98 84 68 56
24 21 21 25 53 66 78 82 78 79 85 86 87 93 98 105 114 98 89 78 62 59
38 23 19 21 44 64 78 82 84 86 89 89 89 90 94 95 102 98 90 83 74 70
40 29 19 20 30 51 76 80 84 87 95 97 93 92 92 93 96 97 90 77 74 72
44 37 25 19 21 35 65 80 84 87 93 99 101 101 99 93 86 95 90 83 82 76
46 40 32 23 19 25 41 72 81 83 91 99 100 100 96 93 93 94 94 95 90 82
50 47 40 28 21 18 29 44 60 74 91 99 100 100 97 95 94 94 93 91 88 85
49 45 40 29 19 15 18 30 41 55 76 94 101 101 98 96 95 96 95 92 88 85
49 45 44 37 28 16 12 18 29 39 57 81 92 95 91 95 94 95 95 96 93 87
51 47 45 42 34 22 14 9 16 27 38 61 75 85 89 84 88 91 96 96 94 92
46 46 43 42 42 31 24 14 9 13 26 40 53 69 83 89 79 81 84 90 92 92
45 43 44 44 46 43 32 22 5 6 7 21 36 56 77 78 81 75 81 90 93 90
44 42 46 43 43 45 38 36 23 13 15 20 28 39 51 59 83 78 77 71 73 75
35 35 40 41 36 38 39 41 42 35 29 27 22 19 20 36 64 74 79 81 80 78
Wind_Direction_500mb
325 302 252 235 205 217 220 226 221 214 216 218 220 214 213 213 216 215 202 202 195 194
353 308 283 245 222 218 226 225 220 216 214 219 220 224 226 218 216 211 202 198 193 196
360 345 299 267 232 217 222 229 225 218 215 217 221 225 224 224 213 208 203 198 198 204
359 354 329 283 255 224 218 226 230 223 220 216 219 222 223 220 212 208 198 202 208 212
1 -0 345 302 261 245 220 221 232 232 224 221 220 221 221 219 211 203 197 200 210 215
9 7 2 336 289 250 234 220 223 230 224 222 218 219 218 216 210 205 206 211 218 217
14 14 10 358 328 289 246 229 230 226 227 221 221 219 217 217 215 216 216 218 219 216
15 16 15 14 359 320 274 238 226 228 229 224 220 224 220 219 220 218 217 215 216 217
16 18 20 23 24 3 315 261 238 234 227 226 221 221 223 225 221 219 217 214 212 211
14 17 21 27 31 36 30 305 249 229 236 232 225 223 219 220 221 221 217 215 210 207
12 14 23 30 33 40 46 28 298 244 230 231 228 223 220 213 213 217 214 212 208 204
11 15 23 28 32 36 49 61 55 203 214 214 216 218 222 220 204 208 207 204 205 211
7 16 23 24 31 38 53 73 99 146 138 148 172 196 216 218 211 199 195 194 192 196
8 21 28 29 33 40 50 71 90 100 112 123 140 161 197 203 208 206 202 207 211 216
Wind_Speed_850mb
22 15 19 33 48 71 75 71 67 80 83 86 94 105 111 110 105 109 98 84 68 56
24 21 21 25 53 66 78 82 78 79 85 86 87 93 98 105 114 98 89 78 62 59
38 23 19 21 44 64 78 82 84 86 89 89 89 90 94 95 102 98 90 83 74 70
40 29 19 20 30 51 76 80 84 87 95 97 93 92 92 93 96 97 90 77 74 72
44 37 25 19 21 35 65 80 84 87 93 99 101 101 99 93 86 95 90 83 82 76
46 40 32 23 19 25 41 72 81 83 91 99 100 100 96 93 93 94 94 95 90 82
50 47 40 28 21 18 29 44 60 74 91 99 100 100 97 95 94 94 93 91 88 85
49 45 40 29 19 15 18 30 41 55 76 94 101 101 98 96 95 96 95 92 88 85
49 45 44 37 28 16 12 18 29 39 57 81 92 95 91 95 94 95 95 96 93 87
51 47 45 42 34 22 14 9 16 27 38 61 75 85 89 84 88 91 96 96 94 92
46 46 43 42 42 31 24 14 9 13 26 40 53 69 83 89 79 81 84 90 92 92
45 43 44 44 46 43 32 22 5 6 7 21 36 56 77 78 81 75 81 90 93 90
44 42 46 43 43 45 38 36 23 13 15 20 28 39 51 59 83 78 77 71 73 75
35 35 40 41 36 38 39 41 42 35 29 27 22 19 20 36 64 74 79 81 80 78
Wind_Direction_850mb
325 302 252 235 205 217 220 226 221 214 216 218 220 214 213 213 216 215 202 202 195 194
353 308 283 245 222 218 226 225 220 216 214 219 220 224 226 218 216 211 202 198 193 196
360 345 299 267 232 217 222 229 225 218 215 217 221 225 224 224 213 208 203 198 198 204
359 354 329 283 255 224 218 226 230 223 220 216 219 222 223 220 212 208 198 202 208 212
1 -0 345 302 261 245 220 221 232 232 224 221 220 221 221 219 211 203 197 200 210 215
9 7 2 336 289 250 234 220 223 230 224 222 218 219 218 216 210 205 206 211 218 217
14 14 10 358 328 289 246 229 230 226 227 221 221 219 217 217 215 216 216 218 219 216
15 16 15 14 359 320 274 238 226 228 229 224 220 224 220 219 220 218 217 215 216 217
16 18 20 23 24 3 315 261 238 234 227 226 221 221 223 225 221 219 217 214 212 211
14 17 21 27 31 36 30 305 249 229 236 232 225 223 219 220 221 221 217 215 210 207
12 14 23 30 33 40 46 28 298 244 230 231 228 223 220 213 213 217 214 212 208 204
11 15 23 28 32 36 49 61 55 203 214 214 216 218 222 220 204 208 207 204 205 211
7 16 23 24 31 38 53 73 99 146 138 148 172 196 216 218 211 199 195 194 192 196
8 21 28 29 33 40 50 71 90 100 112 123 140 161 197 203 208 206 202 207 211 216